CZ-6A DEB, 55902

Orbit data source: Space-Track

CZ-6A DEB, 55902 is space debris in SSO originally from a launch on Fri, 11 Nov 2022 UTC launched from the Taiyaun Space Center, China (TSC). Debris objects in space refer to the collection of defunct objects orbiting the Earth. Examples of debris include non-operational satellites, rocket bodies, and fragments generated from explosions, collisions, or faulty payload assembly.

Loading next visibility...
Identifier
55902, 2022-151ABA
Orbit
SSO
Country
Flag of CNCN / PRC
Related business
Manufacturer
SAST
Mission
Spacecraft
Bus & Motor
Unknown
Mass
Unknown
Launch date (UTC)
2022-11-11 (3 years ago)
Launch vehicle
Unknown
Launch site
Taiyaun Space Center, China (TSC)
Object type
Payload
Rocket body
Debris
Shape & HBR
Unknown shape, 0.1 m
Radar Cross Section
Small (<0.1 m²)

Expand to show TLE details & history
Last TLE update: 21 hours ago

TLE from 21 hours ago
0 CZ-6A DEB
1 55902U 22151ABA 26129.64129202  .00014649  00000-0  18321-2 0  9999
2 55902  98.5754 188.1641 0041523  23.2017 337.1057 14.81801623183743
Epoch: 2026-05-09T15:23Z
TLE epoch observation values (Epoch: 2026-05-09T15:23:27.630Z)
Latitude
0.00002°
Longitude
89.84316°
Altitude
599.875 km
Speed
7.574 km/s
True Right ascension
12h 32m 39s
True Declination
0° 00' 00"
Sunlit
Object was in full shadow at epoch
Visualization orbit readout
Latitude
Unknown
Longitude
Unknown
Altitude
Unknown
Speed
Unknown
Apparent Right ascension
Unknown
Apparent Declination
Unknown
Sunlit
N/A
Visualization observer readout
Local Sidereal Time
20:41:32
Azimuth
Unknown
Elevation
Unknown
Doppler factor
Unknown
Orbital elements
Apogee altitude
649.774 km
Perigee altitude
591.652 km
Semi-major axis
6,998.85 km
Eccentricity
0.00415
Inclination
98.5754°
RAAN
188.1641°
Arg. of periapsis
23.2017°
True anomaly
336.9197°
Mean anomaly
337.1057°
Eccentric anomaly
337.01279°
Mean motion
3.70683 °/min
Orbital period
97.12 mins
BSTAR
0.0018321
Loading maneuver chart data...
Computing Atmospheric mass density...
Loading historical data...
Loading historical data...
Loading historical data...
Loading historical data...
Loading historical data...
Loading historical data...
Loading historical data...

Documentation

Showing up to 5 results
|